This is the latest recevied weather packets stored in our database for station/object SR9NLI. If no packets are shown the sender has not sent any weather packets the latest 1 day(s).
| Time | Temp. | Humidity | Pressure | Rain* | Wind** | Luminosity | Snow |
|---|---|---|---|---|---|---|---|
| 1777999346 | 22.22° C | 100% | 949.7 hPa | - | 1.79 m/s, 182° | - | - |
| 1777999286 | 22.22° C | 100% | 949.7 hPa | - | 1.79 m/s, 184° | - | - |
| 1777999223 | 22.22° C | 100% | 949.7 hPa | - | 1.79 m/s, 185° | - | - |
| 1777999100 | 22.22° C | 100% | 949.8 hPa | - | 2.68 m/s, 177° | - | - |
| 1777998978 | 22.22° C | 100% | 949.6 hPa | - | 2.68 m/s, 183° | - | - |
| 1777998917 | 22.22° C | 100% | 949.7 hPa | - | 2.24 m/s, 190° | - | - |
| 1777998855 | 22.78° C | 100% | 949.7 hPa | - | 1.79 m/s, 193° | - | - |
| 1777998731 | 22.78° C | 100% | 949.6 hPa | - | 1.34 m/s, 194° | - | - |
| 1777998608 | 22.78° C | 100% | 949.8 hPa | - | 1.34 m/s, 185° | - | - |
| 1777998547 | 22.78° C | 100% | 949.9 hPa | - | 1.34 m/s, 184° | - | - |
| 1777998485 | 22.78° C | 100% | 949.7 hPa | - | 1.79 m/s, 197° | - | - |
| 1777998349 | 22.22° C | 100% | 949.6 hPa | - | 1.79 m/s, 188° | - | - |
| 1777998226 | 22.22° C | 100% | 949.7 hPa | - | 1.79 m/s, 179° | - | - |
| 1777998165 | 22.22° C | 100% | 949.7 hPa | - | 1.79 m/s, 180° | - | - |
| 1777998103 | 22.22° C | 100% | 949.6 hPa | - | 1.79 m/s, 176° | - | - |
| 1777997980 | 22.22° C | 100% | 949.8 hPa | - | 2.24 m/s, 168° | - | - |
| 1777997857 | 22.22° C | 100% | 949.6 hPa | - | 2.24 m/s, 166° | - | - |
| 1777997797 | 22.22° C | 100% | 949.7 hPa | - | 2.24 m/s, 166° | - | - |
| 1777997734 | 22.22° C | 100% | 949.7 hPa | - | 2.24 m/s, 163° | - | - |
| 1777997611 | 22.22° C | 100% | 949.7 hPa | - | 2.24 m/s, 162° | - | - |
| 1777997488 | 22.22° C | 100% | 949.7 hPa | - | 0.89 m/s, 170° | - | - |
| 1777997427 | 22.78° C | 100% | 949.8 hPa | - | 0.89 m/s, 183° | - | - |
| 1777997365 | 22.78° C | 100% | 949.6 hPa | - | 0.89 m/s, 174° | - | - |
| 1777997241 | 22.78° C | 100% | 949.7 hPa | - | 1.34 m/s, 194° | - | - |
| 1777997118 | 22.22° C | 100% | 949.6 hPa | - | 1.79 m/s, 193° | - | - |
* Rain since midnight (hover to see other rain measurements)
** Current wind speed in m/s (hover to see current wind gust speed)